GW1125 Weather Reports


time (UTC)temp
F
wind
direction
speed
knots
gust
knots
rain 1hr
in
rain 24hr
in
rain mn
in
humidity
%
barometer
mb
20260506085617 54 0.0 0.0 0.00 0.00 0.00 90 1016.5
20260506085117 54 134 0.9 2.6 0.00 0.00 0.00 89 1016.6
20260506084617 55 0.0 0.0 0.00 0.00 0.00 89 1016.6
20260506084117 55 0.0 0.0 0.00 0.00 0.00 89 1016.4
20260506083637 55 0.0 0.0 0.00 0.00 0.00 89 1016.5
20260506083117 55 0.0 0.0 0.00 0.00 0.00 89 1016.5
20260506082617 55 0.0 0.0 0.00 0.00 0.00 89 1016.5
20260506082118 55 0.0 0.0 0.00 0.00 0.00 89 1016.5
20260506081618 55 0.0 0.0 0.00 0.00 0.00 88 1016.5
20260506081157 55 0.0 0.0 0.00 0.00 0.00 88 1016.3
20260506080617 55 0.0 0.0 0.00 0.00 0.00 89 1016.3
20260506080117 55 0.0 0.0 0.00 0.00 0.00 89 1016.4
20260506073137 54 0.0 0.0 0.00 0.00 0.00 93 1016.2
20260506072657 54 0.0 0.0 0.00 0.00 0.00 93 1016.2
20260506072117 54 0.0 0.0 0.00 0.00 0.00 93 1016.1
20260506071617 54 0.0 0.0 0.00 0.00 0.00 94 1016.1
20260506071117 54 0.0 0.0 0.00 0.00 0.00 94 1016.1
20260506070617 53 0.0 0.0 0.00 0.00 0.00 95 1016.0
20260506070117 53 0.0 0.0 0.00 0.00 0.00 95 1016.0
20260506062117 53 0.0 0.0 0.00 0.00 0.00 94 1015.5
20260506061617 54 0.0 0.0 0.00 0.00 0.00 94 1015.4
20260506061117 54 0.0 0.0 0.00 0.00 0.00 94 1015.3
20260506060637 54 0.0 0.0 0.00 0.00 0.00 94 1015.2
20260506060117 54 0.0 0.0 0.00 0.00 0.00 94 1015.2
20260506051117 55 0.0 0.0 0.00 0.00 0.00 92 1014.7
20260506050617 55 0.0 0.0 0.00 0.00 0.00 92 1014.9
20260506050117 55 0.0 0.0 0.00 0.00 0.00 91 1014.9
20260506045117 55 0.0 0.0 0.00 0.00 0.00 91 1014.8
20260506044617 55 0.0 0.0 0.00 0.00 0.00 91 1014.8
20260506044117 56 0.0 0.0 0.00 0.00 0.00 90 1014.9
20260506043617 56 0.0 0.0 0.00 0.00 0.00 90 1014.9
20260506043117 56 0.0 0.0 0.00 0.00 0.00 90 1014.9
20260506042618 56 0.0 0.0 0.00 0.00 0.00 90 1014.7
20260506042117 56 0.0 0.0 0.00 0.00 0.00 90 1014.6
20260506041617 56 0.0 0.0 0.00 0.00 0.00 89 1014.6
20260506041117 56 0.0 0.0 0.00 0.00 0.00 89 1014.6
20260506040657 56 0.0 0.0 0.00 0.00 0.00 89 1014.5
20260506040117 56 0.0 0.0 0.00 0.00 0.00 89 1014.7
20260506035637 57 0.0 0.0 0.00 0.00 0.00 88 1014.5
20260506035116 57 0.0 0.0 0.00 0.00 0.00 87 1014.5
20260506034618 57 0.0 0.0 0.00 0.00 0.00 87 1014.3
20260506034117 58 0.0 0.0 0.00 0.00 0.00 86 1014.3
20260506033637 58 0.0 0.0 0.00 0.00 0.00 86 1014.3
20260506033117 58 0.0 0.0 0.00 0.00 0.00 86 1014.2
20260506032617 58 0.0 0.0 0.00 0.00 0.00 85 1014.2
20260506032117 59 0.0 0.0 0.00 0.00 0.00 84 1014.1
20260506031617 59 0.0 0.0 0.00 0.00 0.00 83 1014.0
20260506031117 60 0.0 0.0 0.00 0.00 0.00 82 1014.0
20260506030617 60 0.0 0.0 0.00 0.00 0.00 81 1014.1
20260506030118 60 0.0 0.0 0.00 0.00 0.00 81 1014.0
20260506025617 60 0.0 0.0 0.00 0.00 0.00 79 1013.9
20260506025117 61 0.0 0.0 0.00 0.00 0.00 79 1013.7
20260506024617 61 0.0 0.0 0.00 0.00 0.00 79 1013.9
20260506024137 61 0.0 0.0 0.00 0.00 0.00 78 1013.9
20260506023617 61 72 0.0 0.9 0.00 0.00 0.00 78 1013.8
20260506023117 61 86 0.0 0.9 0.00 0.00 0.00 77 1013.9
20260506022617 61 87 0.0 0.9 0.00 0.00 0.00 77 1014.0
20260506022117 61 0.0 0.0 0.00 0.00 0.00 77 1013.9
20260506021618 61 96 0.0 0.9 0.00 0.00 0.00 77 1013.8
20260506021117 62 0.0 0.0 0.00 0.00 0.00 77 1014.0
20260506020637 62 0.0 0.0 0.00 0.00 0.00 77 1013.9
20260506020117 62 0.0 0.0 0.00 0.00 0.00 76 1013.9
20260506015617 62 0.0 0.0 0.00 0.00 0.00 76 1013.7
20260506015137 62 66 0.9 1.7 0.00 0.00 0.00 75 1013.8
20260506014617 62 99 0.0 1.7 0.00 0.00 0.00 75 1013.7
20260506014217 62 77 0.9 1.7 0.00 0.00 0.00 74 1013.8
20260506013617 63 88 0.9 2.6 0.00 0.00 0.00 73 1013.7
20260506013137 63 80 0.9 1.7 0.00 0.00 0.00 73 1013.7
20260506012618 64 77 1.7 2.6 0.00 0.00 0.00 73 1013.7
20260506012137 64 311 0.0 2.6 0.00 0.00 0.00 72 1013.8
20260506011617 64 110 0.9 1.7 0.00 0.00 0.00 71 1013.7
20260506011117 65 283 1.7 2.6 0.00 0.00 0.00 69 1013.8
20260506010617 64 74 0.9 1.7 0.00 0.00 0.00 71 1013.9
20260506010157 64 0.0 0.0 0.00 0.00 0.00 72 1013.9
20260506005617 65 49 1.7 2.6 0.00 0.00 0.00 71 1013.8
20260506005137 65 85 0.9 1.7 0.00 0.00 0.00 69 1013.7
20260506004617 64 80 0.9 3.5 0.00 0.00 0.00 70 1013.8
20260506004117 65 62 0.9 2.6 0.00 0.00 0.00 69 1014.0
20260506003618 66 64 0.9 2.6 0.00 0.00 0.00 69 1013.8
20260506003118 65 114 0.0 0.9 0.00 0.00 0.00 69 1013.9
20260506002617 66 62 0.9 1.7 0.00 0.00 0.00 67 1013.9
20260506002117 66 136 0.9 1.7 0.00 0.00 0.00 68 1013.9
20260506001637 65 103 0.0 0.9 0.00 0.00 0.00 71 1013.9
20260506001117 64 88 0.0 0.9 0.00 0.00 0.00 72 1013.9
20260506000617 64 48 1.7 5.2 0.00 0.00 0.00 70 1014.2
20260506000117 64 59 1.7 3.5 0.00 0.00 0.00 71 1014.1
20260505235618 65 74 0.9 2.6 0.00 0.00 0.00 69 1014.2
20260505235118 65 286 0.0 0.9 0.00 0.00 0.00 69 1014.2
20260505234617 65 99 0.9 1.7 0.00 0.00 0.00 69 1014.2
20260505234117 66 86 0.0 1.7 0.00 0.00 0.00 69 1014.2
20260505233617 65 87 0.0 0.9 0.00 0.00 0.00 69 1014.4
20260505233117 65 85 0.9 2.6 0.00 0.00 0.00 69 1014.2
20260505232617 65 77 0.9 1.7 0.00 0.00 0.00 69 1014.3
20260505232117 65 51 2.6 5.2 0.00 0.00 0.00 69 1014.3
20260505231617 66 61 0.9 1.7 0.00 0.00 0.00 67 1014.3
20260505231117 66 101 0.0 0.9 0.00 0.00 0.00 66 1014.4
20260505230637 65 45 0.9 2.6 0.00 0.00 0.00 70 1014.5
20260505230117 66 0.0 0.0 0.00 0.00 0.00 69 1014.7
20260505225617 64 130 0.9 1.7 0.00 0.00 0.00 70 1014.6
20260505225117 64 85 0.9 1.7 0.00 0.00 0.00 72 1014.6
20260505224617 63 0.0 0.0 0.00 0.00 0.00 72 1014.7
20260505224117 63 0.0 0.0 0.00 0.00 0.00 74 1014.8
20260505223617 62 74 1.7 1.7 0.00 0.00 0.00 75 1014.9
20260505223117 62 43 1.7 2.6 0.00 0.00 0.00 75 1014.9
20260505222618 62 45 1.7 2.6 0.00 0.00 0.00 74 1014.9
20260505222118 62 93 0.0 1.7 0.00 0.00 0.00 74 1015.0
20260505221617 62 97 0.0 0.9 0.00 0.00 0.00 75 1015.0
20260505221117 61 0.0 0.0 0.00 0.00 0.00 77 1015.0
20260505220617 62 57 2.6 5.2 0.00 0.00 0.00 75 1015.2
20260505220137 62 94 0.0 0.9 0.00 0.00 0.00 75 1015.2
20260505215617 62 0.0 0.0 0.00 0.00 0.00 76 1015.2
20260505215117 61 0.0 0.0 0.00 0.00 0.00 76 1015.3
20260505214616 61 0.0 0.0 0.00 0.00 0.00 76 1015.3
20260505214118 61 0.0 0.0 0.00 0.00 0.00 76 1015.3
20260505213617 61 0.0 0.0 0.00 0.00 0.00 76 1015.3
20260505213118 61 105 0.0 0.9 0.00 0.00 0.00 75 1015.2
20260505212617 60 0.0 0.0 0.00 0.00 0.00 77 1015.3
20260505212117 61 0.0 0.0 0.00 0.00 0.00 77 1015.4
20260505211637 60 0.0 0.0 0.00 0.00 0.00 78 1015.4
20260505211117 60 0.0 0.0 0.00 0.00 0.00 77 1015.4
20260505210637 60 66 0.9 1.7 0.00 0.00 0.00 76 1015.4
20260505210136 61 110 0.0 0.9 0.00 0.00 0.00 76 1015.4
20260505205617 60 97 0.0 0.9 0.00 0.00 0.00 77 1015.5
20260505205117 60 0.0 0.0 0.00 0.00 0.00 78 1015.5
20260505204617 60 0.0 0.0 0.00 0.00 0.00 78 1015.6
20260505204117 59 0.0 0.0 0.00 0.00 0.00 79 1015.5
20260505203617 60 0.0 0.0 0.00 0.00 0.00 78 1015.6
20260505203137 59 0.0 0.0 0.00 0.00 0.00 79 1015.6
20260505202617 60 0.0 0.0 0.00 0.00 0.00 79 1015.6
20260505202117 59 0.0 0.0 0.00 0.00 0.00 79 1015.5
20260505201617 59 106 0.0 0.9 0.00 0.00 0.00 80 1015.3
20260505201116 59 0.0 0.0 0.00 0.00 0.00 80 1015.4
20260505200617 59 0.0 0.0 0.00 0.00 0.00 78 1015.4
20260505200118 59 125 0.9 1.7 0.00 0.00 0.00 79 1015.5
20260505195618 59 0.0 0.0 0.00 0.00 0.00 79 1015.6
20260505195117 59 161 0.9 1.7 0.00 0.00 0.00 79 1015.7
20260505194617 59 113 0.0 0.9 0.00 0.00 0.00 81 1015.5
20260505194117 59 0.0 0.0 0.00 0.00 0.00 81 1015.5
20260505193617 59 0.0 0.0 0.00 0.00 0.00 81 1015.5
20260505193117 58 103 0.0 0.9 0.00 0.00 0.00 81 1015.5
20260505192616 58 132 0.9 2.6 0.00 0.00 0.00 80 1015.5
20260505192117 59 0.0 0.0 0.00 0.00 0.00 81 1015.4
20260505191617 59 99 0.0 0.9 0.00 0.00 0.00 81 1015.5
20260505191117 58 0.0 0.0 0.00 0.00 0.00 82 1015.5
20260505190618 58 105 0.0 0.9 0.00 0.00 0.00 82 1015.6
20260505190137 58 116 0.0 0.9 0.00 0.00 0.00 82 1015.5
20260505185617 58 0.0 0.0 0.00 0.00 0.00 83 1015.6
20260505185137 57 114 0.0 0.9 0.00 0.00 0.00 83 1015.5
20260505184637 57 119 0.0 0.9 0.00 0.00 0.00 83 1015.6
20260505184117 57 0.0 0.0 0.00 0.00 0.00 83 1015.5
20260505183617 57 113 0.0 0.9 0.00 0.00 0.00 83 1015.6
20260505183117 57 114 0.9 1.7 0.00 0.00 0.00 83 1015.5
20260505182618 57 0.0 0.0 0.00 0.00 0.00 83 1015.4
20260505182117 57 0.0 0.0 0.00 0.00 0.00 84 1015.5
20260505181637 57 0.0 0.0 0.00 0.00 0.00 84 1015.4
20260505181117 57 0.0 0.0 0.00 0.00 0.00 84 1015.5
20260505180617 57 0.0 0.0 0.00 0.00 0.00 83 1015.5
20260505180117 57 0.0 0.0 0.00 0.00 0.00 84 1015.6
20260505175617 57 0.0 0.0 0.00 0.00 0.00 84 1015.4
20260505175118 56 0.0 0.0 0.00 0.00 0.00 84 1015.4
20260505174637 56 0.0 0.0 0.00 0.00 0.00 84 1015.5
20260505174137 56 0.0 0.0 0.00 0.00 0.00 85 1015.5
20260505173617 56 0.0 0.0 0.00 0.00 0.00 84 1015.4
20260505173117 56 0.0 0.0 0.00 0.00 0.00 84 1015.3
20260505172617 56 0.0 0.0 0.00 0.00 0.00 84 1015.5
20260505172117 56 0.0 0.0 0.00 0.00 0.00 85 1015.3
20260505171617 56 0.0 0.0 0.00 0.00 0.00 84 1015.4
20260505171136 56 0.0 0.0 0.00 0.00 0.00 84 1015.4
20260505170618 56 108 0.9 1.7 0.00 0.00 0.00 85 1015.3
20260505170118 56 109 0.0 0.9 0.00 0.00 0.00 85 1015.2
20260505165618 56 0.0 0.0 0.00 0.00 0.00 85 1015.3
20260505165117 56 0.0 0.0 0.00 0.00 0.00 85 1015.2
20260505164657 56 109 0.0 0.9 0.00 0.00 0.00 85 1015.2
20260505164117 56 0.0 0.0 0.00 0.00 0.00 86 1015.3
20260505163617 56 104 0.0 0.9 0.00 0.00 0.00 86 1015.3
20260505163117 56 0.0 0.0 0.00 0.00 0.00 86 1015.1
20260505162617 56 112 0.0 1.7 0.00 0.00 0.00 86 1015.2
20260505162116 55 0.0 0.0 0.00 0.00 0.00 86 1015.1
20260505161638 55 0.0 0.0 0.00 0.00 0.00 86 1015.1
20260505161118 55 0.0 0.0 0.00 0.00 0.00 86 1015.1
20260505160637 55 130 0.9 1.7 0.00 0.00 0.00 86 1015.2
20260505160117 55 121 0.0 0.9 0.00 0.00 0.00 87 1015.1
20260505153117 55 0.0 0.0 0.00 0.00 0.00 88 1015.0
20260505152617 55 145 1.7 2.6 0.00 0.00 0.00 87 1015.0
20260505152117 55 0.0 0.0 0.00 0.00 0.00 88 1015.3
20260505151617 55 0.0 0.0 0.00 0.00 0.00 87 1015.0
20260505151157 55 0.0 0.0 0.00 0.00 0.00 88 1015.0
20260505150617 55 179 0.0 2.6 0.00 0.00 0.00 88 1014.9
20260505150117 55 126 0.0 0.9 0.00 0.00 0.00 88 1015.0
20260505140617 54 0.0 0.0 0.00 0.00 0.00 90 1014.5
20260505140137 54 0.0 0.0 0.00 0.00 0.00 89 1014.4
20260505130117 54 152 0.0 1.7 0.00 0.00 0.00 90 1013.9
20260505124617 54 0.0 0.0 0.00 0.00 0.00 90 1013.8
20260505124117 54 114 0.0 0.9 0.00 0.00 0.00 90 1013.8
20260505123617 54 0.0 0.0 0.00 0.00 0.00 90 1013.8
20260505123117 54 0.0 0.0 0.00 0.00 0.00 90 1013.8
20260505122617 54 0.0 0.0 0.00 0.00 0.00 90 1013.8
20260505122117 54 0.0 0.0 0.00 0.00 0.00 90 1013.7
20260505121617 54 0.0 0.0 0.00 0.00 0.00 91 1013.7
20260505121137 54 0.0 0.0 0.00 0.00 0.00 91 1013.6
20260505120617 54 0.0 0.0 0.00 0.00 0.00 91 1013.7
20260505120117 54 0.0 0.0 0.00 0.00 0.00 91 1013.6
20260505115617 54 0.0 0.0 0.00 0.00 0.00 91 1013.5
20260505115117 54 0.0 0.0 0.00 0.00 0.00 90 1013.6
20260505114617 54 0.0 0.0 0.00 0.00 0.00 90 1013.5
20260505114117 54 0.0 0.0 0.00 0.00 0.00 91 1013.7
20260505113618 54 0.0 0.0 0.00 0.00 0.00 90 1013.6
20260505113117 54 97 0.0 0.9 0.00 0.00 0.00 90 1013.5
20260505112617 54 0.0 0.0 0.00 0.00 0.00 91 1013.6
20260505112117 54 0.0 0.0 0.00 0.00 0.00 91 1013.6
20260505111617 54 112 0.0 0.9 0.00 0.00 0.00 91 1013.6
20260505111117 54 0.0 0.0 0.00 0.00 0.00 91 1013.4
20260505110617 54 0.0 0.0 0.00 0.00 0.00 91 1013.4
20260505110118 54 0.0 0.0 0.00 0.00 0.00 91 1013.5
20260505102116 54 0.0 0.0 0.00 0.00 0.00 91 1013.2
20260505101618 54 108 0.0 0.9 0.00 0.00 0.00 91 1013.2
20260505101137 54 0.0 0.0 0.00 0.00 0.00 91 1013.0
20260505100617 54 0.0 0.0 0.00 0.00 0.00 91 1013.2
20260505100117 54 108 0.0 0.9 0.00 0.00 0.00 91 1013.1
20260505095617 54 0.0 0.0 0.00 0.00 0.00 92 1013.0
20260505095157 54 0.0 0.0 0.00 0.00 0.00 92 1012.9
20260505094617 54 117 0.9 1.7 0.00 0.00 0.00 92 1012.9
20260505094117 54 0.0 0.0 0.00 0.00 0.00 93 1012.9
20260505093617 53 0.0 0.0 0.00 0.00 0.00 93 1012.8
20260505093137 53 0.0 0.0 0.00 0.00 0.00 93 1012.8
20260505092618 53 0.0 0.0 0.00 0.00 0.00 94 1012.7
20260505092117 53 0.0 0.0 0.00 0.00 0.00 94 1012.9
20260505091617 53 0.0 0.0 0.00 0.00 0.00 94 1012.9
20260505091117 53 0.0 0.0 0.00 0.00 0.00 94 1012.7
20260505090617 52 0.0 0.0 0.00 0.00 0.00 94 1012.7
20260505090117 52 0.0 0.0 0.00 0.00 0.00 94 1012.7